Location: Favalello
(42.2939°N, 9.2706°E)
Time: 18:40:50
(UTC+00:00)

Cosmos 1302 Rocket - Pass Details

Date: 06 December 2019
Orbit: 757 x 776 km, 74.0° (Epoch: 20 January)

Event Time Altitude Azimuth Distance (km) Brightness Sun altitude
Rises 16:14:47 0° 345° (NNW) 3,259 7.1 -4.8°
Reaches altitude 10° 16:17:17 10° 352° (N) 2,326 6.3 -5.2°
Maximum altitude 16:22:21 45° 65° (ENE) 1,045 4.3 -6.0°
Drops below altitude 10° 16:27:21 10° 137° (SE) 2,300 6.3 -6.9°
Sets 16:29:48 0° 144° (SE) 3,219 7.1 -7.3°
